OK,42,46,761,42,2014-10-01T01:40:00,0,28072088,204300
OK,42,46,761,42,2014-10-01T01:45:00,0,28072531,204300
OK,42,46,761,42,2014-10-01T01:50:00,0,28072980,204300
OK,42,46,761,42,2014-10-01T01:55:00,0,28073427,204300
OK,42,46,761,42,2014-10-01T02:05:00,0,28074193,204300
OK,42,46,761,42,2014-10-01T02:10:00,0,28074642,204300
OK,42,46,761,42,2014-10-01T02:15:00,0,28075082,204300
OK,42,46,761,42,2014-10-01T02:20:00,0,28075531,204300
OK,42,46,761,42,2014-10-01T02:25:00,0,28075980,204300
OK,42,46,761,42,2014-10-01T02:30:00,0,28076363,204300
OK,42,46,761,42,2014-10-01T02:35:00,0,28076812,204300
OK,42,46,761,42,2014-10-01T02:40:00,0,28077261,204300
OK,42,46,761,42,2014-10-01T02:45:00,0,28077709,204300
OK,42,46,761,42,2014-10-01T02:50:00,0,28078113,204300
OK,42,46,761,42,2014-10-01T02:55:00,0,28078562,204300
OK,42,46,761,42,2014-10-01T03:00:00,0,28079007,204300
OK,42,46,761,42,2014-10-01T03:05:00,0,28079455,204300
OK,42,46,761,42,2014-10-01T03:10:00,0,28079898,204300
OK,42,46,761,42,2014-10-01T03:20:00,0,28080681,204300
OK,42,46,761,42,2014-10-01T03:25:00,0,28081130,204300
OK,42,46,761,42,2014-10-01T03:30:00,0,28081578,204300
OK,42,46,761,42,2014-10-01T03:35:00,0,28082026,204300
OK,42,46,761,42,2014-10-01T03:40:00,0,28082475,204300
OK,42,46,761,42,2014-10-01T03:45:00,0,28082908,204300
OK,42,46,761,42,2014-10-01T03:50:00,0,28083340,204300
OK,42,46,761,42,2014-10-01T03:55:00,0,28083789,204300
OK,42,46,761,42,2014-10-01T04:00:00,0,28084238,204300
OK,42,46,761,42,2014-10-01T04:05:00,0,28084679,204300
OK,42,46,761,42,2014-10-01T04:10:00,0,28085104,204300
OK,42,46,761,42,2014-10-01T04:15:00,0,28085553,204300
OK,42,46,761,42,2014-10-01T04:20:00,0,28085998,204300
OK,42,46,761,42,2014-10-01T04:25:00,0,28086447,204300
OK,42,46,761,42,2014-10-01T04:30:00,0,28086889,204300
OK,42,46,761,42,2014-10-01T04:35:00,0,28087338,204300
OK,42,46,761,42,2014-10-01T04:40:00,0,28087783,204300
OK,42,46,761,42,2014-10-01T04:45:00,0,28088232,204300
OK,42,46,761,42,2014-10-01T04:50:00,0,28088656,204300
OK,42,46,761,42,2014-10-01T04:55:00,0,28089105,204300
OK,42,46,761,42,2014-10-01T05:00:00,0,28089535,204300
OK,42,46,761,42,2014-10-01T05:05:00,0,28089984,204300
OK,42,46,761,42,2014-10-01T05:10:00,0,28090433,204300
OK,42,46,761,42,2014-10-01T05:15:00,0,28090777,204300
OK,42,46,761,42,2014-10-01T05:20:00,0,28091226,204300
OK,42,46,761,42,2014-10-01T05:25:00,0,28091675,204300
OK,42,46,761,42,2014-10-01T05:30:00,0,28092092,204300
OK,42,46,761,42,2014-10-01T05:35:00,0,28092541,204300
OK,42,46,761,42,2014-10-01T05:40:00,0,28092985,204300
OK,42,46,761,42,2014-10-01T05:45:00,0,28093426,204300
OK,40,49,761,40,2014-10-01T05:50:00,2,28093857,204300
OK,42,46,761,42,2014-10-01T05:55:00,1,28094305,204300
OK,42,46,761,42,2014-10-01T06:00:00,0,28094717,204300
OK,42,46,761,42,2014-10-01T06:05:00,0,28095162,204300
OK,42,46,761,42,2014-10-01T06:10:00,0,28095609,204300
OK,77,25,761,77,2014-10-01T06:15:00,1,28096058,204300
OK,77,25,761,77,2014-10-01T06:20:00,1,28096471,204300
OK,77,25,761,77,2014-10-01T06:25:00,0,28096920,204300
OK,77,25,761,77,2014-10-01T06:30:00,0,28097354,204300
OK,77,25,761,77,2014-10-01T06:35:00,0,28097803,204300
OK,77,25,761,77,2014-10-01T06:40:00,0,28098252,204300
OK,39,50,761,39,2014-10-01T06:45:00,2,28098689,204300
OK,40,49,761,40,2014-10-01T06:50:00,3,28099133,204300
OK,64,30,761,64,2014-10-01T07:00:00,3,28099924,204300
OK,39,50,761,39,2014-10-01T07:10:00,0,28100680,204300
OK,42,46,761,42,2014-10-01T07:20:00,1,28101500,204300
OK,42,46,761,42,2014-10-01T07:25:00,1,28101949,204300
OK,68,28,761,68,2014-10-01T07:30:00,2,28102385,204300
OK,37,53,761,37,2014-10-01T07:35:00,1,28102834,204300
OK,37,53,761,37,2014-10-01T07:40:00,0,28103261,204300
OK,37,53,761,37,2014-10-01T07:45:00,0,28103708,204300
OK,41,47,761,41,2014-10-01T07:50:00,3,28104153,204300
OK,41,47,761,41,2014-10-01T07:55:00,3,28104598,204300
OK,40,49,761,40,2014-10-01T08:00:00,0,28105039,204300
OK,40,49,761,40,2014-10-01T08:05:00,0,28105484,204300
OK,41,47,761,41,2014-10-01T08:10:00,2,28105924,204300
OK,41,47,761,41,2014-10-01T08:15:00,2,28106373,204300
OK,41,47,761,41,2014-10-01T08:20:00,0,28107202,204300
OK,80,24,761,80,2014-10-01T08:30:00,1,28107648,204300
OK,37,53,761,37,2014-10-01T08:35:00,1,28108097,204300
OK,37,53,761,37,2014-10-01T08:40:00,1,28108536,204300
OK,37,53,761,37,2014-10-01T08:45:00,2,28108985,204300
OK,37,53,761,37,2014-10-01T08:50:00,2,28109413,204300
OK,41,47,761,41,2014-10-01T09:00:00,1,28110205,204300
OK,41,47,761,41,2014-10-01T09:05:00,1,28110654,204300
OK,41,47,761,41,2014-10-01T09:10:00,0,28111077,204300
OK,41,47,761,41,2014-10-01T09:15:00,0,28111526,204300
OK,41,47,761,41,2014-10-01T09:20:00,0,28111955,204300
OK,41,47,761,41,2014-10-01T09:30:00,0,28112745,204300
OK,41,47,761,41,2014-10-01T09:35:00,0,28113194,204300
OK,41,47,761,41,2014-10-01T09:40:00,0,28113618,204300
OK,41,47,761,41,2014-10-01T09:45:00,0,28114067,204300
OK,41,47,761,41,2014-10-01T09:50:00,0,28114499,204300
OK,41,47,761,41,2014-10-01T10:00:00,0,28115302,204300
OK,41,47,761,41,2014-10-01T10:05:00,0,28115751,204300
OK,41,47,761,41,2014-10-01T10:10:00,0,28116163,204300
OK,46,42,761,46,2014-10-01T10:15:00,1,28116612,204300
OK,38,51,761,38,2014-10-01T10:20:00,2,28117020,204300
OK,31,63,761,31,2014-10-01T10:25:00,1,28117469,204300
OK,61,32,761,61,2014-10-01T10:30:00,1,28117894,204300
OK,61,32,761,61,2014-10-01T10:35:00,1,28118343,204300
OK,61,32,761,61,2014-10-01T10:40:00,0,28118788,204300
OK,61,32,761,61,2014-10-01T10:45:00,0,28119235,204300
OK,61,32,761,61,2014-10-01T10:50:00,0,28119679,204300
OK,44,44,761,44,2014-10-01T10:55:00,1,28120127,204300
OK,44,44,761,44,2014-10-01T11:00:00,0,28120575,204300
OK,44,44,761,44,2014-10-01T11:10:00,0,28121407,204300
OK,44,44,761,44,2014-10-01T11:15:00,0,28121856,204300
OK,44,44,761,44,2014-10-01T11:20:00,0,28122294,204300
OK,44,44,761,44,2014-10-01T11:25:00,0,28122743,204300
OK,46,42,761,46,2014-10-01T11:30:00,1,28123184,204300
OK,46,42,761,46,2014-10-01T11:35:00,1,28123633,204300
OK,46,42,761,46,2014-10-01T11:40:00,0,28124065,204300
OK,46,42,761,46,2014-10-01T11:45:00,0,28124514,204300
OK,48,40,761,48,2014-10-01T11:50:00,1,28124916,204300
OK,48,40,761,48,2014-10-01T11:55:00,1,28125365,204300
OK,37,53,761,37,2014-10-01T12:00:00,1,28125794,204300
OK,39,50,761,39,2014-10-01T12:10:00,1,28126595,204300
OK,39,50,761,39,2014-10-01T12:15:00,1,28127044,204300
OK,39,50,761,39,2014-10-01T12:20:00,0,28127493,204300
OK,39,50,761,39,2014-10-01T12:25:00,0,28127942,204300
OK,39,50,761,39,2014-10-01T12:30:00,0,28128370,204300
OK,39,50,761,39,2014-10-01T12:35:00,0,28128819,204300
OK,39,50,761,39,2014-10-01T12:40:00,0,28129254,204300
OK,39,50,761,39,2014-10-01T12:50:00,0,28130137,204300
OK,39,50,761,39,2014-10-01T13:00:00,0,28131014,204300
OK,39,50,761,39,2014-10-01T13:05:00,0,28131463,204300
OK,39,50,761,39,2014-10-01T13:10:00,0,28131900,204300
OK,39,50,761,39,2014-10-01T13:15:00,0,28132348,204300
OK,39,50,761,39,2014-10-01T13:20:00,0,28132787,204300
OK,39,50,761,39,2014-10-01T13:30:00,0,28133672,204300
OK,39,50,761,39,2014-10-01T13:40:00,0,28134560,204300
OK,39,50,761,39,2014-10-01T13:50:00,0,28135428,204300
OK,37,53,761,37,2014-10-01T14:00:00,1,28136314,204300
OK,37,53,761,37,2014-10-01T14:05:00,0,28136763,204300
OK,37,53,761,37,2014-10-01T14:10:00,0,28137203,204300
OK,37,53,761,37,2014-10-01T14:20:00,0,28138086,204300
OK,37,53,761,37,2014-10-01T14:30:00,0,28138963,204300
OK,37,53,761,37,2014-10-01T14:40:00,0,28139823,204300
OK,37,53,761,37,2014-10-01T14:45:00,0,28140272,204300
OK,37,53,761,37,2014-10-01T14:50:00,0,28140714,204300
OK,37,53,761,37,2014-10-01T14:55:00,0,28141157,204300
OK,39,50,761,39,2014-10-01T15:00:00,1,28141589,204300
OK,39,50,761,39,2014-10-01T15:10:00,0,28142466,204300
OK,39,50,761,39,2014-10-01T15:15:00,0,28142915,204300
OK,39,50,761,39,2014-10-01T15:20:00,0,28143342,204300
OK,39,50,761,39,2014-10-01T15:25:00,0,28143791,204300
OK,39,50,761,39,2014-10-01T15:30:00,0,28144239,204300
OK,39,50,761,39,2014-10-01T15:35:00,0,28144688,204300
OK,31,63,761,31,2014-10-01T15:45:00,1,28145523,204300
OK,31,63,761,31,2014-10-01T15:50:00,1,28145972,204300
OK,31,63,761,31,2014-10-01T15:55:00,0,28146421,204300
OK,31,63,761,31,2014-10-01T16:00:00,0,28146870,204300
OK,31,63,761,31,2014-10-01T16:05:00,0,28147278,204300
OK,31,63,761,31,2014-10-01T16:10:00,0,28147722,204300
OK,31,63,761,31,2014-10-01T16:20:00,0,28148572,204300
OK,31,63,761,31,2014-10-01T16:25:00,0,28149021,204300
OK,31,63,761,31,2014-10-01T16:30:00,0,28149460,204300
OK,31,63,761,31,2014-10-01T16:35:00,0,28149909,204300
OK,31,63,761,31,2014-10-01T16:40:00,0,28150335,204300
OK,38,51,761,38,2014-10-01T16:45:00,1,28150784,204300
OK,38,51,761,38,2014-10-01T16:50:00,1,28151202,204300
OK,38,51,761,38,2014-10-01T16:55:00,0,28151651,204300
OK,38,51,761,38,2014-10-01T17:05:00,0,28152100,204300
OK,38,51,761,38,2014-10-01T17:10:00,0,28152549,204300
OK,38,51,761,38,2014-10-01T17:15:00,0,28152995,204300
OK,38,51,761,38,2014-10-01T17:20:00,0,28153442,204300
OK,38,51,761,38,2014-10-01T17:25:00,0,28153891,204300
OK,38,51,761,38,2014-10-01T17:30:00,0,28154301,204300
OK,37,53,761,37,2014-10-01T17:35:00,1,28154750,204300
OK,37,53,761,37,2014-10-01T17:40:00,1,28155192,204300
OK,36,54,761,36,2014-10-01T17:45:00,1,28155640,204300
OK,36,54,761,36,2014-10-01T17:50:00,1,28156058,204300
OK,36,54,761,36,2014-10-01T17:55:00,0,28156507,204300
OK,36,54,761,36,2014-10-01T18:00:00,0,28156955,204300
OK,36,54,761,36,2014-10-01T18:05:00,0,28157394,204300
OK,36,54,761,36,2014-10-01T18:10:00,0,28157823,204300
OK,36,54,761,36,2014-10-01T18:15:00,0,28158272,204300
OK,36,54,761,36,2014-10-01T18:20:00,0,28158716,204300
OK,36,54,761,36,2014-10-01T18:25:00,0,28159161,204300
OK,36,54,761,36,2014-10-01T18:35:00,0,28159943,204300
OK,36,54,761,36,2014-10-01T18:40:00,0,28160392,204300
OK,34,57,761,34,2014-10-01T18:45:00,1,28160841,204300
OK,34,57,761,34,2014-10-01T18:50:00,1,28161279,204300
OK,36,54,761,36,2014-10-01T18:55:00,2,28161723,204300
OK,38,51,761,38,2014-10-01T19:00:00,0,28162145,204300
OK,38,51,761,38,2014-10-01T19:05:00,0,28162594,204300
OK,38,51,761,38,2014-10-01T19:10:00,0,28162988,204300
OK,33,59,761,33,2014-10-01T19:15:00,1,28163427,204300
OK,33,59,761,33,2014-10-01T19:20:00,1,28163875,204300
OK,33,59,761,33,2014-10-01T19:25:00,0,28164323,204300
OK,33,59,761,33,2014-10-01T19:30:00,0,28164755,204300
OK,33,59,761,33,2014-10-01T19:35:00,0,28165203,204300
OK,33,59,761,33,2014-10-01T19:40:00,0,28165629,204300
OK,33,59,761,33,2014-10-01T19:45:00,0,28166076,204300
OK,33,59,761,33,2014-10-01T19:55:00,0,28166880,204300
OK,33,59,761,33,2014-10-01T20:00:00,0,28167744,204300
OK,33,59,761,33,2014-10-01T20:05:00,0,28168191,204300
OK,33,59,761,33,2014-10-01T20:10:00,0,28168636,204300
OK,33,59,761,33,2014-10-01T20:15:00,0,28169085,204300
OK,33,59,761,33,2014-10-01T20:25:00,0,28169533,204300
OK,33,59,761,33,2014-10-01T20:30:00,0,28170404,204300
OK,33,59,761,33,2014-10-01T20:35:00,0,28170852,204300
OK,33,59,761,33,2014-10-01T20:40:00,0,28171291,204300
OK,33,59,761,33,2014-10-01T20:45:00,0,28171735,204300
OK,33,59,761,33,2014-10-01T20:50:00,0,28172183,204300
OK,33,59,761,33,2014-10-01T20:55:00,0,28172629,204300
OK,33,59,761,33,2014-10-01T21:00:00,0,28173075,204300
OK,33,59,761,33,2014-10-01T21:05:00,0,28173524,204300
OK,33,59,761,33,2014-10-01T21:10:00,0,28173965,204300
OK,33,59,761,33,2014-10-01T21:15:00,0,28174414,204300
OK,33,59,761,33,2014-10-01T21:20:00,0,28174841,204300
OK,33,59,761,33,2014-10-01T21:25:00,0,28175236,204300
OK,33,59,761,33,2014-10-01T21:30:00,0,28175685,204300
OK,33,59,761,33,2014-10-01T21:35:00,0,28176134,204300
OK,33,59,761,33,2014-10-01T21:45:00,0,28176583,204300
OK,33,59,761,33,2014-10-01T21:50:00,0,28177379,204300
OK,33,59,761,33,2014-10-01T21:55:00,0,28177825,204300
OK,33,59,761,33,2014-10-01T22:05:00,0,28178274,204300
OK,33,59,761,33,2014-10-01T22:10:00,0,28178723,204300
OK,33,59,761,33,2014-10-01T22:20:00,0,28179602,204300
OK,33,59,761,33,2014-10-01T22:25:00,0,28180454,204300
OK,33,59,761,33,2014-10-01T22:30:00,0,28180892,204300
OK,33,59,761,33,2014-10-01T22:35:00,0,28181316,204300
OK,33,59,761,33,2014-10-01T22:40:00,0,28181764,204300
OK,33,59,761,33,2014-10-01T22:45:00,0,28182211,204300
OK,33,59,761,33,2014-10-01T22:50:00,0,28182660,204300
OK,33,59,761,33,2014-10-01T22:55:00,0,28183079,204300
OK,33,59,761,33,2014-10-01T23:00:00,0,28183510,204300
OK,33,59,761,33,2014-10-01T23:05:00,0,28183955,204300
OK,33,59,761,33,2014-10-01T23:10:00,0,28184404,204300
OK,33,59,761,33,2014-10-01T23:15:00,0,28184839,204300
OK,33,59,761,33,2014-10-01T23:20:00,0,28185287,204300
OK,33,59,761,33,2014-10-01T23:25:00,0,28185718,204300
OK,33,59,761,33,2014-10-01T23:30:00,0,28186110,204300
OK,33,59,761,33,2014-10-01T23:35:00,0,28186559,204300
OK,33,59,761,33,2014-10-01T23:40:00,0,28186957,204300
OK,33,59,761,33,2014-10-01T23:45:00,0,28187399,204300
OK,33,59,761,33,2014-10-01T23:50:00,0,28187848,204300
OK,33,59,761,33,2014-10-01T23:55:00,0,28188289,204300
OK,33,59,761,33,2014-10-02T00:00:00,0,28188725,204300
OK,33,59,761,33,2014-10-02T00:10:00,0,28189174,204300
OK,33,59,761,33,2014-10-02T00:15:00,0,28189622,204300
OK,33,59,761,33,2014-10-02T00:20:00,0,28190045,204300
OK,33,59,761,33,2014-10-02T00:30:00,0,28190847,204300
OK,33,59,761,33,2014-10-02T00:35:00,0,28191296,204300
OK,33,59,761,33,2014-10-02T00:45:00,0,28192051,204300
OK,33,59,761,33,2014-10-02T00:50:00,0,28192500,204300
OK,33,59,761,33,2014-10-02T00:55:00,0,28193303,204300
OK,33,59,761,33,2014-10-02T01:00:00,0,28193744,204300
OK,33,59,761,33,2014-10-02T01:10:00,0,28194193,204300
OK,33,59,761,33,2014-10-02T01:15:00,0,28194642,204300
OK,33,59,761,33,2014-10-02T01:25:00,0,28195327,204300
OK,33,59,761,33,2014-10-02T01:30:00,0,28195776,204300
OK,33,59,761,33,2014-10-02T01:35:00,0,28196225,204300
OK,33,59,761,33,2014-10-02T01:40:00,0,28196509,204300
OK,33,59,761,33,2014-10-02T01:45:00,0,28196953,204300
OK,33,59,761,33,2014-10-02T01:50:00,0,28197381,204300
OK,33,59,761,33,2014-10-02T01:55:00,0,28197830,204300
OK,33,59,761,33,2014-10-02T02:00:00,0,28198278,204300
OK,33,59,761,33,2014-10-02T02:05:00,0,28198726,204300
OK,33,59,761,33,2014-10-02T02:10:00,0,28199175,204300
OK,33,59,761,33,2014-10-02T02:15:00,0,28199546,204300
OK,33,59,761,33,2014-10-02T02:20:00,0,28199984,204300
OK,33,59,761,33,2014-10-02T02:25:00,0,28200874,204300
OK,33,59,761,33,2014-10-02T02:30:00,0,28201308,204300
OK,33,59,761,33,2014-10-02T02:45:00,0,28201754,204300
OK,33,59,761,33,2014-10-02T02:50:00,0,28202203,204300
OK,33,59,761,33,2014-10-02T02:55:00,0,28202650,204300
OK,33,59,761,33,2014-10-02T03:00:00,0,28203094,204300
OK,33,59,761,33,2014-10-02T03:10:00,0,28203977,204300
OK,33,59,761,33,2014-10-02T03:25:00,0,28204426,204300
OK,33,59,761,33,2014-10-02T03:35:00,0,28204875,204300
OK,33,59,761,33,2014-10-02T03:40:00,0,28205323,204300
OK,33,59,761,33,2014-10-02T03:45:00,0,28205752,204300
OK,33,59,761,33,2014-10-02T03:55:00,0,28206582,204300
OK,33,59,761,33,2014-10-02T04:00:00,0,28207031,204300
OK,33,59,761,33,2014-10-02T04:10:00,0,28207899,204300
OK,33,59,761,33,2014-10-02T04:15:00,0,28208348,204300
OK,33,59,761,33,2014-10-02T04:20:00,0,28208775,204300
OK,33,59,761,33,2014-10-02T04:25:00,0,28209224,204300
OK,33,59,761,33,2014-10-02T04:30:00,0,28209662,204300
OK,33,59,761,33,2014-10-02T04:35:00,0,28210111,204300
OK,33,59,761,33,2014-10-02T04:40:00,0,28210534,204300
OK,33,59,761,33,2014-10-02T04:45:00,0,28210983,204300
OK,33,59,761,33,2014-10-02T04:50:00,0,28211408,204300
OK,33,59,761,33,2014-10-02T05:00:00,0,28212230,204300
OK,33,59,761,33,2014-10-02T05:05:00,0,28212679,204300
OK,33,59,761,33,2014-10-02T05:10:00,0,28213108,204300
OK,33,59,761,33,2014-10-02T05:15:00,0,28213557,204300
OK,33,59,761,33,2014-10-02T05:20:00,0,28213995,204300
OK,33,59,761,33,2014-10-02T05:25:00,0,28214444,204300
OK,33,59,761,33,2014-10-02T05:30:00,0,28214857,204300
OK,33,59,761,33,2014-10-02T05:35:00,0,28215306,204300
OK,33,59,761,33,2014-10-02T05:40:00,0,28215722,204300
OK,33,59,761,33,2014-10-02T05:45:00,0,28216171,204300
OK,33,59,761,33,2014-10-02T05:50:00,0,28216510,204300
OK,47,41,761,47,2014-10-02T05:55:00,2,28216950,204300
OK,41,47,761,41,2014-10-02T06:00:00,1,28217397,204300
OK,33,59,761,33,2014-10-02T06:05:00,0,28217846,204300
OK,33,59,761,33,2014-10-02T06:10:00,0,28218285,204300
OK,111,17,761,111,2014-10-02T06:15:00,1,28218734,204300
OK,111,17,761,111,2014-10-02T06:20:00,0,28219154,204300
OK,38,51,761,38,2014-10-02T06:30:00,1,28219976,204300
OK,38,51,761,38,2014-10-02T06:35:00,0,28220423,204300
OK,60,32,761,60,2014-10-02T06:40:00,2,28220859,204300
OK,60,32,761,60,2014-10-02T06:45:00,3,28221308,204300
OK,40,49,761,40,2014-10-02T07:05:00,0,28222120,204300
OK,40,49,761,40,2014-10-02T07:10:00,0,28222569,204300
OK,40,49,761,40,2014-10-02T07:15:00,0,28223018,204300
OK,55,35,761,55,2014-10-02T07:25:00,2,28223883,204300
OK,58,33,761,58,2014-10-02T07:35:00,0,28224687,204300
OK,58,33,761,58,2014-10-02T07:40:00,0,28225136,204300
OK,58,33,761,58,2014-10-02T07:50:00,0,28225907,204300
OK,58,33,761,58,2014-10-02T07:55:00,0,28226356,204300
OK,58,33,761,58,2014-10-02T08:00:00,0,28226797,204300
OK,39,50,761,39,2014-10-02T08:05:00,0,28227246,204300
OK,39,50,761,39,2014-10-02T08:10:00,0,28227661,204300
OK,39,50,761,39,2014-10-02T08:20:00,0,28228469,204300
OK,39,50,761,39,2014-10-02T08:25:00,0,28228918,204300
OK,39,50,761,39,2014-10-02T08:30:00,0,28229328,204300
OK,39,50,761,39,2014-10-02T08:40:00,0,28230127,204300
OK,60,32,761,60,2014-10-02T08:50:00,1,28230942,204300
OK,60,32,761,60,2014-10-02T08:55:00,1,28231389,204300
OK,60,32,761,60,2014-10-02T09:00:00,0,28231814,204300
OK,60,32,761,60,2014-10-02T09:15:00,0,28232605,204300
OK,60,32,761,60,2014-10-02T09:20:00,0,28233054,204300
OK,35,56,761,35,2014-10-02T09:25:00,1,28233502,204300
OK,35,56,761,35,2014-10-02T09:30:00,1,28233927,204300
OK,35,56,761,35,2014-10-02T09:40:00,0,28234709,204300
OK,35,56,761,35,2014-10-02T09:50:00,0,28235585,204300
OK,35,56,761,35,2014-10-02T09:55:00,0,28236034,204300
OK,35,56,761,35,2014-10-02T10:00:00,0,28236477,204300
OK,35,56,761,35,2014-10-02T10:10:00,1,28237326,204300
OK,35,56,761,35,2014-10-02T10:15:00,0,28237774,204300
OK,35,56,761,35,2014-10-02T10:20:00,0,28238223,204300
OK,35,56,761,35,2014-10-02T10:25:00,0,28238670,204300
OK,35,56,761,35,2014-10-02T10:30:00,0,28239111,204300
OK,41,47,761,41,2014-10-02T10:35:00,0,28239559,204300
OK,41,47,761,41,2014-10-02T10:40:00,0,28239990,204300
OK,41,47,761,41,2014-10-02T10:45:00,0,28240439,204300
OK,41,47,761,41,2014-10-02T10:50:00,0,28240883,204300
OK,41,47,761,41,2014-10-02T10:55:00,0,28241332,204300
OK,41,47,761,41,2014-10-02T11:00:00,0,28241764,204300
OK,41,47,761,41,2014-10-02T11:10:00,0,28242608,204300
OK,41,47,761,41,2014-10-02T11:15:00,0,28243057,204300
OK,41,47,761,41,2014-10-02T11:20:00,0,28243506,204300
OK,41,47,761,41,2014-10-02T11:25:00,0,28243831,204300
OK,36,54,761,36,2014-10-02T11:35:00,1,28244698,204300
OK,36,54,761,36,2014-10-02T11:40:00,0,28245147,204300
OK,38,51,761,38,2014-10-02T11:50:00,3,28246002,204300
OK,34,57,761,34,2014-10-02T12:00:00,0,28246888,204300
OK,34,57,761,34,2014-10-02T12:05:00,0,28247336,204300
OK,41,47,761,41,2014-10-02T12:15:00,0,28248213,204300
OK,41,47,761,41,2014-10-02T12:20:00,0,28248662,204300
OK,59,33,761,59,2014-10-02T12:25:00,0,28249108,204300
OK,59,33,761,59,2014-10-02T12:30:00,0,28249535,204300
OK,59,33,761,59,2014-10-02T12:35:00,0,28250349,204300
OK,43,45,761,43,2014-10-02T12:45:00,3,28251129,204300
OK,40,49,761,40,2014-10-02T13:20:00,0,28251674,204300
OK,40,49,761,40,2014-10-02T13:30:00,0,28252258,204300
OK,40,49,761,40,2014-10-02T13:35:00,0,28252701,204300
OK,40,49,761,40,2014-10-02T13:40:00,0,28253117,204300
OK,40,49,761,40,2014-10-02T13:50:00,0,28253566,204300
OK,48,40,761,48,2014-10-02T13:55:00,1,28254292,204300
OK,48,40,761,48,2014-10-02T14:10:00,0,28254869,204300
OK,48,40,761,48,2014-10-02T14:15:00,0,28255318,204300
OK,48,40,761,48,2014-10-02T14:20:00,0,28255753,204300
OK,48,40,761,48,2014-10-02T14:25:00,0,28256195,204300
OK,48,40,761,48,2014-10-02T14:30:00,1,28256624,204300
OK,44,44,761,44,2014-10-02T14:35:00,1,28257072,204300
OK,44,44,761,44,2014-10-02T14:40:00,1,28257515,204300
OK,44,44,761,44,2014-10-02T14:45:00,0,28257961,204300
OK,44,44,761,44,2014-10-02T14:50:00,0,28258396,204300
OK,44,44,761,44,2014-10-02T14:55:00,0,28258840,204300
OK,44,44,761,44,2014-10-02T15:00:00,0,28259289,204300
OK,44,44,761,44,2014-10-02T15:05:00,0,28259737,204300
OK,44,44,761,44,2014-10-02T15:10:00,0,28260170,204300
OK,44,44,761,44,2014-10-02T15:15:00,0,28260618,204300
OK,44,44,761,44,2014-10-02T15:20:00,0,28261058,204300
OK,44,44,761,44,2014-10-02T15:25:00,0,28261440,204300
OK,44,44,761,44,2014-10-02T15:30:00,0,28261870,204300
OK,37,53,761,37,2014-10-02T15:35:00,1,28262317,204300
OK,37,53,761,37,2014-10-02T15:40:00,0,28262763,204300
OK,37,53,761,37,2014-10-02T15:45:00,0,28263201,204300
OK,37,53,761,37,2014-10-02T15:50:00,0,28263642,204300
OK,37,53,761,37,2014-10-02T15:55:00,0,28264044,204300
OK,37,53,761,37,2014-10-02T16:00:00,0,28264493,204300
OK,39,50,761,39,2014-10-02T16:05:00,1,28264932,204300
OK,38,51,761,38,2014-10-02T16:10:00,1,28265372,204300
OK,38,51,761,38,2014-10-02T16:15:00,0,28265767,204300
OK,49,40,761,49,2014-10-02T16:20:00,1,28266216,204300
OK,40,49,761,40,2014-10-02T16:30:00,1,28266665,204300
OK,40,49,761,40,2014-10-02T16:35:00,1,28267437,204300
OK,40,49,761,40,2014-10-02T16:40:00,0,28267886,204300
OK,40,49,761,40,2014-10-02T16:45:00,0,28268328,204300
OK,40,49,761,40,2014-10-02T16:50:00,0,28268777,204300
OK,32,61,761,32,2014-10-02T16:55:00,1,28269226,204300
OK,40,49,761,40,2014-10-02T17:00:00,2,28269663,204300
OK,30,65,761,30,2014-10-02T17:05:00,1,28270110,204300
OK,30,65,761,30,2014-10-02T17:10:00,0,28270544,204300
OK,30,65,761,30,2014-10-02T17:20:00,0,28270993,204300
OK,30,65,761,30,2014-10-02T17:25:00,0,28271871,204300
OK,30,65,761,30,2014-10-02T17:30:00,0,28272308,204300
OK,30,65,761,30,2014-10-02T17:35:00,0,28272749,204300
OK,30,65,761,30,2014-10-02T17:40:00,0,28273196,204300
OK,36,54,761,36,2014-10-02T17:45:00,1,28273643,204300
OK,36,54,761,36,2014-10-02T17:55:00,0,28274091,204300
OK,36,54,761,36,2014-10-02T18:00:00,0,28274865,204300
OK,36,54,761,36,2014-10-02T18:05:00,0,28275305,204300
OK,36,54,761,36,2014-10-02T18:10:00,0,28275749,204300
OK,36,54,761,36,2014-10-02T18:15:00,0,28276195,204300
OK,36,54,761,36,2014-10-02T18:20:00,0,28276591,204300
OK,36,54,761,36,2014-10-02T18:35:00,0,28277040,204300
OK,36,54,761,36,2014-10-02T18:40:00,0,28277489,204300
OK,36,54,761,36,2014-10-02T18:45:00,0,28278287,204300
OK,36,54,761,36,2014-10-02T19:00:00,0,28278735,204300
OK,36,54,761,36,2014-10-02T19:05:00,0,28279184,204300
OK,36,54,761,36,2014-10-02T19:10:00,0,28279629,204300
OK,36,54,761,36,2014-10-02T19:15:00,0,28280070,204300
OK,36,54,761,36,2014-10-02T19:20:00,0,28280517,204300
OK,36,54,761,36,2014-10-02T19:25:00,0,28280921,204300
OK,36,54,761,36,2014-10-02T19:35:00,0,28281819,204300
OK,36,54,761,36,2014-10-02T19:40:00,0,28282251,204300
OK,36,54,761,36,2014-10-02T19:45:00,0,28282699,204300
OK,36,54,761,36,2014-10-02T19:50:00,0,28283146,204300
OK,42,46,761,42,2014-10-02T19:55:00,0,28283577,204300
OK,42,46,761,42,2014-10-02T20:00:00,0,28283946,204300
OK,42,46,761,42,2014-10-02T20:10:00,0,28284395,204300
OK,42,46,761,42,2014-10-02T20:15:00,0,28285178,204300
OK,42,46,761,42,2014-10-02T20:20:00,0,28285614,204300
OK,42,46,761,42,2014-10-02T20:25:00,0,28286029,204300
OK,42,46,761,42,2014-10-02T20:35:00,0,28286881,204300
OK,42,46,761,42,2014-10-02T20:40:00,0,28287312,204300
OK,42,46,761,42,2014-10-02T20:45:00,0,28287643,204300
OK,0,0,761,0,2014-10-03T22:35:00,0,28291592,204300
OK,0,0,761,0,2014-10-03T22:40:00,0,28292041,204300
OK,0,0,761,0,2014-10-03T22:45:00,0,28292490,204300